AUA27 EDDN-EDDF

Flight info

Callsign AUA27
Flight time 0h 32m
Altitude 22000
Route SUKAD1G SUKAD DCT PIWAW T159 SPESA SPESA5B
Aircraft A20N/M-SDE2E3FGHIRWXY/LB1

Departure

Time 2026-05-05 08:46
Airport Nuremberg Airport (EDDN)

Arrival

Time 2026-05-05 09:18
Airport Frankfurt Main Airport (EDDF)
Time Latitude Longitude Altitude Speed Heading
2026-05-05 08:28 49.49517 11.07853 1023 ft 0 kts 188°
2026-05-05 08:37 49.49530 11.07856 1023 ft 3 kts 188°
2026-05-05 08:37 49.49550 11.07859 1026 ft 3 kts 174°
2026-05-05 08:37 49.49568 11.07848 1027 ft 3 kts 145°
2026-05-05 08:38 49.49584 11.07831 1026 ft 2 kts 134°
2026-05-05 08:38 49.49583 11.07836 1026 ft 2 kts 120°
2026-05-05 08:38 49.49580 11.07847 1025 ft 0 kts 110°
2026-05-05 08:42 49.49571 11.07929 1026 ft 13 kts 97°
2026-05-05 08:42 49.49556 11.08085 1027 ft 16 kts 99°
2026-05-05 08:42 49.49540 11.08237 1025 ft 12 kts 98°
2026-05-05 08:43 49.49561 11.08343 1030 ft 10 kts 28°
2026-05-05 08:43 49.49613 11.08393 1033 ft 8 kts 66°
2026-05-05 08:43 49.49611 11.08483 1034 ft 9 kts 98°
2026-05-05 08:43 49.49600 11.08585 1035 ft 11 kts 99°
2026-05-05 08:44 49.49589 11.08704 1036 ft 12 kts 97°
2026-05-05 08:44 49.49575 11.08848 1037 ft 15 kts 96°
2026-05-05 08:44 49.49558 11.09015 1039 ft 16 kts 99°
2026-05-05 08:44 49.49542 11.09182 1042 ft 15 kts 99°
2026-05-05 08:45 49.49531 11.09344 1045 ft 15 kts 78°
2026-05-05 08:45 49.49583 11.09471 1048 ft 14 kts 54°
2026-05-05 08:45 49.49645 11.09570 1051 ft 12 kts 21°
2026-05-05 08:45 49.49702 11.09512 1051 ft 7 kts 283°
2026-05-05 08:46 49.49736 11.09179 1046 ft 74 kts 277°
2026-05-05 08:46 49.49853 11.08000 1031 ft 146 kts 279°
2026-05-05 08:46 49.50003 11.06356 1621 ft 155 kts 279°
2026-05-05 08:46 49.50142 11.04722 2461 ft 157 kts 278°
2026-05-05 08:47 49.50286 11.03039 3120 ft 166 kts 278°
2026-05-05 08:47 49.50465 11.01183 3566 ft 184 kts 279°
2026-05-05 08:47 49.50677 10.99142 4011 ft 202 kts 279°
2026-05-05 08:47 49.50907 10.96925 4491 ft 215 kts 278°
2026-05-05 08:48 49.51149 10.94633 5147 ft 217 kts 278°
2026-05-05 08:48 49.51393 10.92344 5848 ft 217 kts 277°
2026-05-05 08:48 49.51627 10.90043 6507 ft 218 kts 277°
2026-05-05 08:48 49.51854 10.87674 6846 ft 239 kts 277°
2026-05-05 08:49 49.52102 10.85028 6856 ft 256 kts 277°
2026-05-05 08:49 49.52359 10.82312 6865 ft 258 kts 277°
2026-05-05 08:49 49.52621 10.79570 7224 ft 260 kts 276°
2026-05-05 08:49 49.52892 10.76730 7725 ft 277 kts 276°
2026-05-05 08:50 49.53174 10.73762 8587 ft 281 kts 276°
2026-05-05 08:50 49.53460 10.70774 9552 ft 284 kts 276°
2026-05-05 08:50 49.53750 10.67732 10281 ft 294 kts 276°
2026-05-05 08:50 49.54053 10.64494 10606 ft 317 kts 276°
2026-05-05 08:51 49.54375 10.61064 10959 ft 336 kts 276°
2026-05-05 08:51 49.54714 10.57477 11719 ft 340 kts 277°
2026-05-05 08:51 49.55304 10.53923 12553 ft 347 kts 288°
2026-05-05 08:51 49.56370 10.50553 13330 ft 354 kts 300°
2026-05-05 08:52 49.57802 10.47435 14050 ft 359 kts 303°
2026-05-05 08:52 49.59277 10.44296 14751 ft 363 kts 303°
2026-05-05 08:52 49.60760 10.41114 15443 ft 367 kts 303°
2026-05-05 08:52 49.62255 10.37894 16129 ft 371 kts 302°
2026-05-05 08:53 49.63763 10.34636 16805 ft 375 kts 302°
2026-05-05 08:53 49.65266 10.31385 17452 ft 379 kts 302°
2026-05-05 08:53 49.66806 10.28046 18089 ft 384 kts 302°
2026-05-05 08:53 49.68361 10.24674 18700 ft 387 kts 302°
2026-05-05 08:54 49.69922 10.21283 19326 ft 388 kts 302°
2026-05-05 08:54 49.71490 10.17872 19938 ft 390 kts 302°
2026-05-05 08:54 49.73066 10.14439 20578 ft 392 kts 302°
2026-05-05 08:54 49.74645 10.10995 21197 ft 394 kts 302°
2026-05-05 08:55 49.76228 10.07538 21851 ft 395 kts 302°
2026-05-05 08:55 49.77794 10.04113 22507 ft 395 kts 302°
2026-05-05 08:55 49.79379 10.00641 23181 ft 395 kts 302°
2026-05-05 08:55 49.80957 9.97179 23892 ft 392 kts 303°
2026-05-05 08:56 49.82520 9.93751 24596 ft 387 kts 302°
2026-05-05 08:56 49.84061 9.90368 25311 ft 382 kts 302°
2026-05-05 08:56 49.85577 9.87037 26049 ft 375 kts 302°
2026-05-05 08:56 49.87065 9.83763 26796 ft 368 kts 301°
2026-05-05 08:57 49.88491 9.80518 27576 ft 359 kts 297°
2026-05-05 08:57 49.89626 9.77157 28367 ft 345 kts 289°
2026-05-05 08:57 49.90501 9.73815 29172 ft 333 kts 288°
2026-05-05 08:57 49.91362 9.70544 29895 ft 325 kts 287°
2026-05-05 08:58 49.92223 9.67288 30127 ft 328 kts 287°
2026-05-05 08:58 49.92859 9.63913 30039 ft 324 kts 272°
2026-05-05 08:58 49.92834 9.60457 29604 ft 320 kts 256°
2026-05-05 08:58 49.92173 9.57167 28855 ft 322 kts 245°
2026-05-05 08:59 49.91295 9.53923 28045 ft 330 kts 245°
2026-05-05 08:59 49.90400 9.50592 27245 ft 340 kts 245°
2026-05-05 08:59 49.89474 9.47122 26462 ft 355 kts 246°
2026-05-05 08:59 49.88525 9.43542 25719 ft 362 kts 246°
2026-05-05 09:00 49.87578 9.39963 24994 ft 366 kts 246°
2026-05-05 09:00 49.86853 9.36155 24278 ft 373 kts 261°
2026-05-05 09:00 49.86832 9.32119 23568 ft 377 kts 277°
2026-05-05 09:00 49.87472 9.28190 22794 ft 375 kts 284°
2026-05-05 09:01 49.88225 9.24341 21979 ft 371 kts 284°
2026-05-05 09:01 49.88965 9.20523 21188 ft 368 kts 284°
2026-05-05 09:01 49.89693 9.16737 20442 ft 365 kts 283°
2026-05-05 09:01 49.90412 9.12977 19704 ft 362 kts 283°
2026-05-05 09:02 49.91122 9.09244 18992 ft 360 kts 283°
2026-05-05 09:02 49.91816 9.05588 18295 ft 357 kts 283°
2026-05-05 09:02 49.92512 9.01912 17520 ft 354 kts 283°
2026-05-05 09:02 49.93201 8.98256 16735 ft 351 kts 283°
2026-05-05 09:03 49.94235 8.94828 15954 ft 354 kts 303°
2026-05-05 09:03 49.95996 8.92172 15216 ft 356 kts 325°
2026-05-05 09:03 49.98268 8.90655 14492 ft 358 kts 346°
2026-05-05 09:03 50.00741 8.90495 13783 ft 357 kts
2026-05-05 09:04 50.03073 8.91716 13050 ft 354 kts 30°
2026-05-05 09:04 50.04882 8.94113 12605 ft 340 kts 53°
2026-05-05 09:04 50.05919 8.97269 12352 ft 319 kts 78°
2026-05-05 09:04 50.06224 9.00573 12146 ft 300 kts 87°
2026-05-05 09:05 50.06418 9.03744 11944 ft 293 kts 84°
2026-05-05 09:05 50.06773 9.06889 11742 ft 297 kts 79°
2026-05-05 09:05 50.07306 9.10009 11552 ft 297 kts 75°
2026-05-05 09:05 50.07942 9.13042 11352 ft 293 kts 72°
2026-05-05 09:06 50.08624 9.16031 11165 ft 293 kts 71°
2026-05-05 09:06 50.09320 9.18999 10947 ft 291 kts 72°
2026-05-05 09:06 50.10005 9.21909 10752 ft 290 kts 72°
2026-05-05 09:06 50.10694 9.24855 10559 ft 289 kts 72°
2026-05-05 09:07 50.11376 9.27785 10353 ft 285 kts 72°
2026-05-05 09:07 50.12059 9.30648 10165 ft 279 kts 66°
2026-05-05 09:07 50.13214 9.33008 9966 ft 273 kts 38°
2026-05-05 09:07 50.14888 9.34248 9772 ft 265 kts
2026-05-05 09:08 50.16712 9.34132 9577 ft 266 kts 345°
2026-05-05 09:08 50.18394 9.33008 9356 ft 261 kts 319°
2026-05-05 09:08 50.19499 9.30862 9150 ft 254 kts 289°
2026-05-05 09:08 50.20040 9.28281 8951 ft 254 kts 284°
2026-05-05 09:09 50.20535 9.25644 8743 ft 252 kts 283°
2026-05-05 09:09 50.21026 9.23028 8536 ft 251 kts 283°
2026-05-05 09:09 50.21234 9.20371 8333 ft 246 kts 259°
2026-05-05 09:09 50.20775 9.17830 8143 ft 243 kts 249°
2026-05-05 09:10 50.20186 9.15357 7940 ft 241 kts 242°
2026-05-05 09:10 50.19293 9.13167 7736 ft 239 kts 233°
2026-05-05 09:10 50.18419 9.10949 7532 ft 240 kts 241°
2026-05-05 09:10 50.17734 9.08584 7336 ft 239 kts 246°
2026-05-05 09:11 50.17153 9.06160 7252 ft 236 kts 248°
2026-05-05 09:11 50.16588 9.03769 7328 ft 241 kts 248°
2026-05-05 09:11 50.16006 9.01323 7240 ft 240 kts 247°
2026-05-05 09:11 50.15425 8.98883 7072 ft 239 kts 247°
2026-05-05 09:12 50.14853 8.96477 6844 ft 234 kts 247°
2026-05-05 09:12 50.14294 8.94123 6582 ft 229 kts 247°
2026-05-05 09:12 50.13745 8.91814 6298 ft 226 kts 247°
2026-05-05 09:12 50.13201 8.89527 5986 ft 223 kts 247°
2026-05-05 09:13 50.12664 8.87272 5688 ft 221 kts 248°
2026-05-05 09:13 50.12136 8.85051 5376 ft 215 kts 248°
2026-05-05 09:13 50.11625 8.82901 5078 ft 208 kts 248°
2026-05-05 09:13 50.11147 8.80891 4996 ft 191 kts 248°
2026-05-05 09:14 50.10711 8.79061 5006 ft 173 kts 248°
2026-05-05 09:14 50.10315 8.77395 4992 ft 155 kts 248°
2026-05-05 09:14 50.09956 8.75892 5033 ft 145 kts 248°
2026-05-05 09:14 50.09606 8.74425 5008 ft 144 kts 248°
2026-05-05 09:15 50.09258 8.72963 4981 ft 143 kts 248°
2026-05-05 09:15 50.08908 8.71495 4989 ft 146 kts 248°
2026-05-05 09:15 50.08571 8.70013 4623 ft 149 kts 248°
2026-05-05 09:15 50.08203 8.68460 4032 ft 158 kts 247°
2026-05-05 09:16 50.07773 8.66807 3233 ft 172 kts 245°
2026-05-05 09:16 50.07308 8.65029 2465 ft 179 kts 250°
2026-05-05 09:16 50.06933 8.63180 1748 ft 179 kts 253°
2026-05-05 09:16 50.06553 8.61408 1382 ft 162 kts 250°
2026-05-05 09:17 50.06140 8.59864 1131 ft 148 kts 249°
2026-05-05 09:17 50.05790 8.58406 879 ft 139 kts 249°
2026-05-05 09:17 50.05457 8.56998 717 ft 141 kts 250°
2026-05-05 09:17 50.05119 8.55586 568 ft 139 kts 250°
2026-05-05 09:18 50.04775 8.54183 450 ft 138 kts 250°
2026-05-05 09:18 50.04443 8.52797 358 ft 139 kts 250°
2026-05-05 09:18 50.04171 8.51655 345 ft 54 kts 245°
2026-05-05 09:18 50.04013 8.51420 347 ft 11 kts 216°
2026-05-05 09:19 50.03953 8.51363 349 ft 5 kts 188°
2026-05-05 09:19 50.03951 8.51363 349 ft 0 kts 186°
2026-05-05 09:19 50.03949 8.51362 349 ft 2 kts 186°
2026-05-05 09:19 50.03943 8.51362 349 ft 2 kts 183°
2026-05-05 09:20 50.03907 8.51415 346 ft 10 kts 103°
2026-05-05 09:20 50.03928 8.51539 348 ft 13 kts 70°
2026-05-05 09:20 50.03963 8.51688 348 ft 16 kts 68°
2026-05-05 09:20 50.04004 8.51856 347 ft 18 kts 70°
2026-05-05 09:21 50.04049 8.52047 346 ft 20 kts 69°
2026-05-05 09:21 50.04097 8.52245 353 ft 19 kts 69°
2026-05-05 09:21 50.04146 8.52445 350 ft 21 kts 70°
2026-05-05 09:21 50.04196 8.52659 349 ft 22 kts 71°
2026-05-05 09:22 50.04254 8.52881 346 ft 22 kts 68°
2026-05-05 09:22 50.04304 8.53115 351 ft 24 kts 66°
2026-05-05 09:22 50.04360 8.53350 354 ft 22 kts 71°
2026-05-05 09:22 50.04398 8.53559 362 ft 20 kts 82°
2026-05-05 09:23 50.04412 8.53765 358 ft 20 kts 84°
2026-05-05 09:23 50.04426 8.53984 358 ft 21 kts 84°
2026-05-05 09:23 50.04443 8.54225 360 ft 23 kts 84°
2026-05-05 09:23 50.04453 8.54448 357 ft 20 kts 94°
2026-05-05 09:24 50.04406 8.54651 361 ft 18 kts 124°
2026-05-05 09:24 50.04307 8.54789 357 ft 21 kts 134°
2026-05-05 09:24 50.04325 8.52308 335 ft 0 kts 250°
2026-05-05 09:25 50.04300 8.52276 338 ft 13 kts 204°
2026-05-05 09:25 50.04236 8.52307 349 ft 9 kts 137°
2026-05-05 09:25 50.04212 8.52386 343 ft 0 kts 105°